Location: Burgerwiesen
(48.6500°N, 15.6167°E)
Time: 12:58:19
(UTC+00:00)

Cosmos-2242 - Visible Passes

Search period start: 06 August 2020 00:00
Search period end: 16 August 2020 00:00
Orbit: 592 x 616 km, 82.5° (Epoch: 05 August)

Date Brightness Start Highest point End Pass type
(mag) Time Alt. Az. Time Alt. Az. Time Alt. Az.
13 Aug 6.3 02:49:09 10° ESE 02:50:48 12° E 02:52:28 10° ENE visible
14 Aug 5.9 03:00:09 10° SE 03:03:12 19° E 03:06:15 10° NE visible
15 Aug 5.3 03:11:54 10° SSE 03:15:39 28° E 03:19:26 10° NNE visible
